• In Belgien
  • Länderverzeichnis
  • Für 7 Tage
  • Wassertemperatur
  • Satellitenkarten
  • Wetterkarte
  • Widgets
  • user-avatar
    Anmelden

    Stündliche Wetter Ath

    Heute, 21 Februar, Mittwoch

    Zeit Temperatur Niederschläge Wind Luftdruck Luftfeuchtigkeit
    00:00 -1°C° 0 mm 3 m/S 763 mmHg 80%
    01:00 -2°C° 0 mm 3 m/S 763 mmHg 81%
    02:00 -2°C° 0 mm 3 m/S 764 mmHg 82%
    03:00 -2°C° 0 mm 3 m/S 764 mmHg 83%
    04:00 -2°C° 0 mm 3 m/S 764 mmHg 83%
    05:00 -2°C° 0 mm 3 m/S 764 mmHg 84%
    06:00 -2°C° 0 mm 3 m/S 764 mmHg 87%
    07:00 -2°C° 0 mm 4 m/S 764 mmHg 80%
    08:00 -2°C° 0 mm 4 m/S 765 mmHg 74%
    09:00 -1°C° 0 mm 4 m/S 765 mmHg 68%
    10:00 0°C° 0 mm 4 m/S 765 mmHg 63%
    11:00 +3°C° 0 mm 4 m/S 764 mmHg 58%
    12:00 +4°C° 0 mm 4 m/S 764 mmHg 53%
    13:00 +4°C° 0 mm 4 m/S 764 mmHg 53%
    14:00 +4°C° 0 mm 4 m/S 764 mmHg 53%
    15:00 +3°C° 0 mm 5 m/S 763 mmHg 53%
    16:00 +3°C° 0 mm 4 m/S 763 mmHg 58%
    17:00 0°C° 0 mm 4 m/S 763 mmHg 63%
    18:00 0°C° 0 mm 3 m/S 763 mmHg 68%
    19:00 0°C° 0 mm 3 m/S 764 mmHg 70%
    20:00 -1°C° 0 mm 3 m/S 764 mmHg 71%
    21:00 -1°C° 0 mm 3 m/S 764 mmHg 73%
    22:00 -1°C° 0 mm 3 m/S 764 mmHg 74%
    23:00 -2°C° 0 mm 3 m/S 764 mmHg 75%

    Morgen, 22 Februar, Donnerstag

    Zeit Temperatur Niederschläge Wind Luftdruck Luftfeuchtigkeit
    00:00 -2°C° 0 mm 3 m/S 764 mmHg 76%
    01:00 -2°C° 0 mm 3 m/S 764 mmHg 77%
    02:00 -3°C° 0 mm 4 m/S 764 mmHg 78%
    03:00 -3°C° 0 mm 4 m/S 763 mmHg 78%
    04:00 -3°C° 0 mm 4 m/S 763 mmHg 78%
    05:00 -4°C° 0 mm 4 m/S 763 mmHg 77%
    06:00 -4°C° 0 mm 4 m/S 763 mmHg 76%
    07:00 -3°C° 0 mm 4 m/S 763 mmHg 70%
    08:00 -2°C° 0 mm 5 m/S 763 mmHg 64%
    09:00 -2°C° 0 mm 6 m/S 764 mmHg 58%
    10:00 -1°C° 0 mm 6 m/S 763 mmHg 52%
    11:00 +1°C° 0 mm 6 m/S 763 mmHg 46%
    12:00 +3°C° 0 mm 6 m/S 763 mmHg 40%
    13:00 +3°C° 0 mm 6 m/S 763 mmHg 41%
    14:00 +3°C° 0 mm 6 m/S 762 mmHg 41%
    15:00 +3°C° 0 mm 6 m/S 762 mmHg 42%
    16:00 +2°C° 0 mm 6 m/S 762 mmHg 47%
    17:00 0°C° 0 mm 5 m/S 762 mmHg 52%
    18:00 -1°C° 0 mm 4 m/S 762 mmHg 58%
    19:00 -1°C° 0 mm 4 m/S 763 mmHg 60%
    20:00 -2°C° 0 mm 4 m/S 763 mmHg 63%
    21:00 -2°C° 0 mm 4 m/S 763 mmHg 65%
    22:00 -2°C° 0 mm 4 m/S 763 mmHg 67%
    23:00 -3°C° 0 mm 4 m/S 763 mmHg 69%

    übermorgen, 23 Februar, Freitag

    Zeit Temperatur Niederschläge Wind Luftdruck Luftfeuchtigkeit
    00:00 -3°C° 0 mm 4 m/S 763 mmHg 70%
    01:00 -3°C° 0 mm 4 m/S 763 mmHg 71%
    02:00 -3°C° 0 mm 4 m/S 763 mmHg 71%
    03:00 -4°C° 0 mm 4 m/S 763 mmHg 72%
    04:00 -4°C° 0 mm 4 m/S 763 mmHg 72%
    05:00 -4°C° 0 mm 4 m/S 763 mmHg 72%
    06:00 -4°C° 0 mm 4 m/S 763 mmHg 72%
    07:00 -4°C° 0 mm 5 m/S 763 mmHg 66%
    08:00 -2°C° 0 mm 5 m/S 763 mmHg 60%
    09:00 -2°C° 0 mm 6 m/S 763 mmHg 53%
    10:00 -1°C° 0 mm 6 m/S 762 mmHg 48%
    11:00 +1°C° 0 mm 6 m/S 762 mmHg 44%
    12:00 +2°C° 0 mm 6 m/S 762 mmHg 39%
    13:00 +2°C° 0 mm 6 m/S 761 mmHg 38%
    14:00 +2°C° 0 mm 6 m/S 761 mmHg 38%
    15:00 +2°C° 0 mm 6 m/S 761 mmHg 37%
    16:00 +1°C° 0 mm 6 m/S 761 mmHg 40%
    17:00 -1°C° 0 mm 5 m/S 761 mmHg 43%
    18:00 -2°C° 0 mm 4 m/S 761 mmHg 45%
    19:00 -2°C° 0 mm 4 m/S 761 mmHg 45%
    20:00 -3°C° 0 mm 4 m/S 761 mmHg 44%
    21:00 -3°C° 0 mm 4 m/S 761 mmHg 44%
    22:00 -3°C° 0 mm 4 m/S 761 mmHg 44%
    23:00 -4°C° 0 mm 4 m/S 761 mmHg 44%

    24 Februar, Samstag

    Zeit Temperatur Niederschläge Wind Luftdruck Luftfeuchtigkeit
    00:00 -4°C° 0 mm 4 m/S 761 mmHg 45%
    01:00 -4°C° 0 mm 4 m/S 761 mmHg 46%
    02:00 -4°C° 0 mm 4 m/S 761 mmHg 47%
    03:00 -5°C° 0 mm 5 m/S 761 mmHg 48%
    04:00 -5°C° 0 mm 5 m/S 761 mmHg 48%
    05:00 -5°C° 0 mm 5 m/S 761 mmHg 48%
    06:00 -5°C° 0 mm 5 m/S 761 mmHg 48%
    07:00 -4°C° 0 mm 6 m/S 761 mmHg 45%
    08:00 -3°C° 0 mm 6 m/S 761 mmHg 41%
    09:00 -2°C° 0 mm 7 m/S 761 mmHg 38%
    10:00 0°C° 0 mm 7 m/S 761 mmHg 36%
    11:00 +2°C° 0 mm 7 m/S 761 mmHg 35%
    12:00 +3°C° 0 mm 7 m/S 760 mmHg 34%
    13:00 +4°C° 0 mm 7 m/S 760 mmHg 34%
    14:00 +4°C° 0 mm 7 m/S 760 mmHg 35%
    15:00 +4°C° 0 mm 7 m/S 760 mmHg 36%
    16:00 +3°C° 0 mm 7 m/S 760 mmHg 41%
    17:00 +1°C° 0 mm 6 m/S 760 mmHg 45%
    18:00 -1°C° 0 mm 6 m/S 761 mmHg 50%
    19:00 -1°C° 0 mm 6 m/S 761 mmHg 52%
    20:00 -2°C° 0 mm 6 m/S 762 mmHg 54%
    21:00 -3°C° 0 mm 6 m/S 762 mmHg 56%
    22:00 -3°C° 0 mm 6 m/S 762 mmHg 53%
    23:00 -4°C° 0 mm 6 m/S 762 mmHg 50%

    25 Februar, Sonntag

    Zeit Temperatur Niederschläge Wind Luftdruck Luftfeuchtigkeit
    00:00 -4°C° 0 mm 6 m/S 763 mmHg 48%
    01:00 -4°C° 0 mm 6 m/S 763 mmHg 45%
    02:00 -5°C° 0 mm 6 m/S 763 mmHg 43%
    03:00 -5°C° 0 mm 6 m/S 763 mmHg 41%
    04:00 -5°C° 0 mm 6 m/S 763 mmHg 39%
    05:00 -6°C° 0 mm 6 m/S 764 mmHg 37%
    06:00 -6°C° 0 mm 6 m/S 764 mmHg 35%
    07:00 -6°C° 0 mm 7 m/S 764 mmHg 33%
    08:00 -6°C° 0 mm 7 m/S 764 mmHg 30%
    09:00 -5°C° 0 mm 8 m/S 765 mmHg 28%
    10:00 -4°C° 0 mm 8 m/S 765 mmHg 27%
    11:00 -2°C° 0 mm 8 m/S 765 mmHg 26%
    12:00 -1°C° 0 mm 8 m/S 765 mmHg 24%
    13:00 -1°C° 0 mm 7 m/S 765 mmHg 25%
    14:00 -1°C° 0 mm 7 m/S 765 mmHg 25%
    15:00 -1°C° 0 mm 7 m/S 765 mmHg 26%
    16:00 -2°C° 0 mm 7 m/S 765 mmHg 28%
    17:00 -3°C° 0 mm 6 m/S 766 mmHg 30%
    18:00 -5°C° 0 mm 6 m/S 766 mmHg 32%
    19:00 -5°C° 0 mm 6 m/S 766 mmHg 32%
    20:00 -6°C° 0 mm 5 m/S 767 mmHg 32%
    21:00 -6°C° 0 mm 5 m/S 767 mmHg 33%
    22:00 -6°C° 0 mm 5 m/S 767 mmHg 34%
    23:00 -7°C° 0 mm 5 m/S 768 mmHg 36%

    26 Februar, Montag

    Zeit Temperatur Niederschläge Wind Luftdruck Luftfeuchtigkeit
    00:00 -7°C° 0 mm 5 m/S 768 mmHg 37%
    01:00 -7°C° 0 mm 5 m/S 768 mmHg 39%
    02:00 -7°C° 0 mm 4 m/S 768 mmHg 40%
    03:00 -7°C° 0 mm 4 m/S 768 mmHg 42%
    04:00 -7°C° 0 mm 4 m/S 768 mmHg 43%
    05:00 -7°C° 0 mm 5 m/S 768 mmHg 43%
    06:00 -7°C° 0 mm 5 m/S 768 mmHg 44%
    07:00 -7°C° 0 mm 5 m/S 768 mmHg 41%
    08:00 -6°C° 0 mm 6 m/S 768 mmHg 38%
    09:00 -6°C° 0 mm 6 m/S 768 mmHg 34%
    10:00 -5°C° 0 mm 6 m/S 768 mmHg 32%
    11:00 -4°C° 0 mm 6 m/S 768 mmHg 29%
    12:00 -3°C° 0 mm 6 m/S 767 mmHg 27%
    13:00 -3°C° 0 mm 6 m/S 767 mmHg 27%
    14:00 -3°C° 0 mm 6 m/S 767 mmHg 28%
    15:00 -3°C° 0 mm 6 m/S 766 mmHg 28%
    16:00 -4°C° 0 mm 6 m/S 766 mmHg 33%
    17:00 -5°C° 0 mm 5 m/S 766 mmHg 37%
    18:00 -5°C° 0 mm 4 m/S 766 mmHg 42%
    19:00 -5°C° 0 mm 4 m/S 766 mmHg 44%
    20:00 -5°C° 0 mm 4 m/S 766 mmHg 46%
    21:00 -7°C° 0 mm 4 m/S 766 mmHg 49%
    22:00 -7°C° 0 mm 4 m/S 766 mmHg 49%
    23:00 -6°C° 0 mm 3 m/S 766 mmHg 50%
    Mehr zeigen